{"data":{"norad_id":58502,"intl_designator":"2023-189A","name":"2023-189A","alt_names":[],"object_type":"PAYLOAD","status":"ACTIVE","operator":null,"country":"PRC","launch_date":"2023-12-04","launch_site_code":"JSC","launch_vehicle":null,"mission":null,"orbit_class":"UNKNOWN","rcs_meters":null,"size_class":null,"mass_kg":null,"dimensions":null,"purposes":[],"wikipedia_slug":null,"has_3d_model":false,"image_url":null,"decayed_at":null,"tle_current":{"epoch":"2026-05-25T05:00:05.523264Z","epoch_age_seconds":64001,"freshness":"FRESH","line1":"1 58502U 23189A   26145.20839726  .00004417  00000+0  14047-3 0  9992","line2":"2 58502  97.4383 163.3053 0010524 351.5290   8.5773 15.33096988137692","mean_motion":15.33096988,"eccentricity":0.0010524,"inclination_deg":97.4383,"raan_deg":163.3053,"arg_perigee_deg":351.529,"mean_anomaly_deg":8.5773,"bstar":0.00014047,"rev_number":13769,"period_min":93.927521303042,"perigee_km":459.37543029026,"apogee_km":473.78218812548,"semimajor_km":6844.7158092079,"source":"CELESTRAK","updated_at":"2026-05-25T13:38:00.794698Z"}}}